Flag for Brunei Weather for the Past 2 Weeks in Bandar Seri Begawan, Brunei

Now
81 °F

Partly cloudy.


Feels Like: 88 °F
Forecast: 80 / 89 °F
Wind: 1 mph from West

Location: Brunei Airport

Current Time: Feb 12, 2016 at 3:38:35 AM

Latest Report: Feb 12, 2016 at 3:00 AM


Visibility: N/A

Pressure: 29.86 "Hg

Humidity: 94%

Dew point: 79 °F

Location of Bandar Seri BegawanLocation

Historic Weather in Bandar Seri Begawan — Graph

°F

Bandar Seri Begawan Temperature Yesterday

Maximum temperature yesterday: 90 °F (at 11:00 AM)
Minimum temperature yesterday: 79 °F (at 4:30 AM)
Average temperature yesterday: 84 °F

High & Low Weather Summary for the Past Weeks

 TemperatureHumidityPressure
High93 °F (Jan 30, 2:00 PM)100% (Jan 28, 2:30 AM)29.92 "Hg (Jan 28, 2:30 AM)
Low77 °F (Jan 28, 2:30 AM)49% (Jan 30, 2:00 PM)29.71 "Hg (Feb 5, 3:30 PM)
Average83 °F85%29.83 "Hg
* Reported Jan 28 2:00 AM — Feb 12 2:30 AM, Bandar Seri Begawan, Weather by CustomWeather, © 2016

Note: Actual official high and low records may vary slightly from our data, if they occured in-between our weather recording intervals... More about our weather records

Advertising

Bandar Seri Begawan Weather History for the Previous 24 Hours

 ConditionsComfort  
Time TempWeatherWind HumidityBarometerVisibility
2:30 AM
Fri, Feb 12
81 °FPartly cloudy.3 mph94%29.86 "HgN/A
2:00 AM81 °FPartly cloudy.1 mph94%29.86 "HgN/A
1:30 AM81 °FPassing clouds.1 mph94%29.86 "HgN/A
1:00 AM81 °FPassing clouds.5 mph94%29.86 "HgN/A
12:30 AM81 °FPassing clouds.5 mph94%29.89 "HgN/A
12:00 AM81 °FPassing clouds.2 mph94%29.89 "HgN/A
11:30 PM
Thu, Feb 11
82 °FPassing clouds.5 mph89%29.89 "HgN/A
11:00 PM82 °FPassing clouds.3 mph89%29.89 "HgN/A
10:30 PM82 °FPassing clouds.3 mph89%29.89 "HgN/A
10:00 PM82 °FPassing clouds.3 mph89%29.89 "HgN/A
9:30 PM82 °FPassing clouds.6 mph89%29.89 "HgN/A
9:00 PM82 °FPassing clouds.3 mph89%29.89 "HgN/A
8:30 PM82 °FPassing clouds.7 mph89%29.86 "HgN/A
8:00 PM82 °FPassing clouds.7 mph84%29.86 "HgN/A
7:30 PM82 °FPassing clouds.9 mph84%29.83 "HgN/A
7:00 PM82 °FPassing clouds.8 mph79%29.83 "HgN/A
6:30 PM82 °FPartly sunny.8 mph84%29.80 "HgN/A
6:00 PM84 °FBroken clouds.9 mph84%29.80 "HgN/A
5:30 PM84 °FBroken clouds.7 mph84%29.80 "HgN/A
5:00 PM84 °FBroken clouds.7 mph84%29.77 "HgN/A
4:30 PM86 °FBroken clouds.8 mph79%29.77 "HgN/A
4:00 PM88 °FPartly sunny.7 mph75%29.77 "HgN/A
3:30 PM88 °FPartly sunny.8 mph75%29.77 "HgN/A
3:00 PM90 °FPartly sunny.8 mph67%29.77 "HgN/A
2:30 PM90 °FPartly sunny.7 mph67%29.77 "HgN/A
2:00 PM90 °FPartly sunny.7 mph67%29.77 "HgN/A
1:30 PM90 °FPartly sunny.8 mph67%29.80 "HgN/A
1:00 PM88 °FPartly sunny.7 mph70%29.80 "HgN/A
12:30 PM90 °FPartly sunny.6 mph67%29.83 "HgN/A
12:00 PM90 °FPartly sunny.3 mph63%29.83 "HgN/A
11:30 AM90 °FPartly sunny.5 mph63%29.83 "HgN/A
11:00 AM90 °FPartly sunny.7 mph63%29.86 "HgN/A
10:00 AM88 °FPartly sunny.7 mph70%29.86 "HgN/A
9:30 AM86 °FPartly sunny.2 mph79%29.89 "HgN/A
9:00 AM82 °FPartly sunny.2 mph89%29.89 "HgN/A
8:00 AM81 °FPartly sunny.5 mph94%29.89 "Hg6 mi
7:30 AM79 °FPartly sunny.3 mph100%29.86 "Hg6 mi
7:00 AM79 °FPartly sunny.1 mph100%29.86 "HgN/A
6:30 AM79 °FPassing clouds.1 mph100%29.86 "Hg6 mi
5:30 AM79 °FPartly cloudy.1 mph100%29.83 "HgN/A
4:30 AM79 °FPassing clouds.1 mph94%29.83 "HgN/A
4:00 AM81 °FPassing clouds.1 mph94%29.83 "HgN/A
3:30 AM81 °FPassing clouds.3 mph94%29.83 "HgN/A
Weather by CustomWeather, © 2016

See weather overviewHow to use our weather pages